1. [TLELIST] Current TLEs
    Sent July 31st 2010

    HST 1 20580U 90037B 10211.73259020 .00000615 00000-0 34199-4 0 6132 2 20580 028.4693 315.5735 0003144 303.6721 056.3603 15.01006220911306 ISS (ZARYA) 1 25544U 98067A 10212.49161714 .00011227 00000-0 85980-4 0 6184 2 25544 051.6448 003.8645 000...

  2. [TLELIST] Current TLEs
    Sent July 30th 2010

    HST 1 20580U 90037B 10209.73785346 .00000455 00000-0 22002-4 0 6114 2 20580 028.4699 328.5983 0003223 280.9802 079.0485 15.01004457911003 ISS (ZARYA) 1 25544U 98067A 10211.49231142 -.00001303 00000-0 -52810-5 0 6123 2 25544 051.6442 008.9766 000...

  3. [TLELIST] Current TLEs
    Sent July 29th 2010

    HST 1 20580U 90037B 10209.73785346 .00000455 00000-0 22002-4 0 6114 2 20580 028.4699 328.5983 0003223 280.9802 079.0485 15.01004457911003 ISS (ZARYA) 1 25544U 98067A 10210.52791510 .00011113 00000-0 90068-4 0 6052 2 25544 051.6447 013.9091 000...

  4. [TLELIST] Current TLEs
    Sent July 28th 2010

    HST 1 20580U 90037B 10208.60750253 .00000451 00000-0 21657-4 0 6108 2 20580 028.4703 335.9821 0003267 269.4552 090.5718 15.01003764910831 ISS (ZARYA) 1 25544U 98067A 10209.24597222 .00000889 00000-0 11576-4 0 5989 2 25544 051.6447 020.4626 000...

  5. [TLELIST] Current TLEs
    Sent July 27th 2010

    HST 1 20580U 90037B 10205.74837589 .00000391 00000-0 17060-4 0 6092 2 20580 028.4703 354.6421 0003268 239.0610 120.9688 15.01001869910405 ISS (ZARYA) 1 25544U 98067A 10208.49321880 .00006684 00000-0 56049-4 0 5938 2 25544 051.6465 024.3112 000...

  6. [TLELIST] Current TLEs
    Sent July 26th 2010

    HST 1 20580U 90037B 10205.74837589 .00000391 00000-0 17060-4 0 6092 2 20580 028.4703 354.6421 0003268 239.0610 120.9688 15.01001869910405 ISS (ZARYA) 1 25544U 98067A 10207.48252260 .00007699 00000-0 63855-4 0 5874 2 25544 051.6461 029.4806 000...

  7. [TLELIST] Current TLEs
    Sent July 25th 2010

    HST 1 20580U 90037B 10205.74837589 .00000391 00000-0 17060-4 0 6092 2 20580 028.4703 354.6421 0003268 239.0610 120.9688 15.01001869910405 ISS (ZARYA) 1 25544U 98067A 10206.52024338 .00008026 00000-0 66410-4 0 5821 2 25544 051.6461 034.4046 000...

  8. [TLELIST] Current TLEs
    Sent July 24th 2010

    HST 1 20580U 90037B 10204.88398835 .00000367 00000-0 15227-4 0 6087 2 20580 028.4704 000.2857 0003323 229.4034 130.6265 15.01001296910276 ISS (ZARYA) 1 25544U 98067A 10205.51077370 .00008250 00000-0 68169-4 0 5746 2 25544 051.6463 039.5630 000...

  9. [TLELIST] Current TLEs
    Sent July 23rd 2010

    HST 1 20580U 90037B 10203.15521287 .00000367 00000-0 15227-4 0 6074 2 20580 028.4704 011.5685 0003323 211.0255 149.0127 15.01000605910018 ISS (ZARYA) 1 25544U 98067A 10204.49173862 .00008020 00000-0 66455-4 0 5678 2 25544 051.6457 044.7743 000...

  10. [TLELIST] Current TLEs
    Sent July 22nd 2010

    HST 1 20580U 90037B 10203.15521287 .00000367 00000-0 15227-4 0 6074 2 20580 028.4704 011.5685 0003323 211.0255 149.0127 15.01000605910018 ISS (ZARYA) 1 25544U 98067A 10202.77872757 .00008101 00000-0 67152-4 0 5570 2 25544 051.6453 053.5350 000...

< <Previous

Archive Index

 

(archive rss , atom )

this list's archives:


International Space Station (ISS) / Hubble Space Telescope (HST) / Chandra X-Ray Observatory Orbital Data via EMAIL
Subscribe/Unsubscribe on [TLELIST]

* Required